Location: Mauna Kea VIS
(19.7591°N, 155.4561°W)
Time: 16:21:49
(UTC-10:00)

Daily predictions for brighter satellites

Satellite Brightness Start Highest point End
(mag) Time Altitude Azimuth Time Altitude Azimuth Time Altitude Azimuth
Cosmos 1758 Rocket 4.3 18:30:10 10° NNE 18:34:10 31° E 18:38:08 10° SE
Cosmos 2263 4.3 18:34:22 10° N 18:39:52 54° ENE 18:45:24 10° SSE
CZ-4 R/B 3.2 18:38:23 10° SSW 18:42:10 38° W 18:46:02 10° NNW
Cosmos 1184 Rocket 3.4 18:40:36 10° NNW 18:43:56 62° W 18:47:15 10° S
OAO 2 Rocket 3.4 18:42:48 10° WNW 18:48:07 86° NNE 18:53:26 10° ESE
Cosmos 540 Rocket 3.6 18:43:26 10° S 18:48:19 48° ESE 18:53:12 10° NNE
Cosmos 1937 Rocket 4.0 18:43:32 10° N 18:48:22 37° ENE 18:53:09 10° SE
Cosmos 2228 3.0 18:47:25 10° S 18:51:47 82° E 18:56:08 10° N
SJ-6B 4.4 18:52:25 11° ESE 18:54:50 17° ENE 18:57:24 10° NE
FUSE 4.0 18:51:12 10° WNW 18:56:33 79° SSW 19:01:17 14° ESE
Cosmos 2181 Rocket 3.9 18:50:35 10° N 18:56:38 62° E 19:02:39 10° SSE
YAOGAN 1 4.1 18:52:51 10° S 18:56:54 40° W 19:00:57 10° NNW
Cosmos 2074 Rocket 4.0 18:51:00 10° S 18:57:02 57° E 19:03:05 10° NNE
Gbstr 26 Del rocket 4.4 18:55:47 10° S 18:59:08 21° ESE 19:01:33 15° E
USA 229 DEB 4.0 18:53:05 10° NNW 19:00:10 54° ENE 19:07:18 10° SE
USA 229 4.0 18:53:11 10° NNW 19:00:15 53° ENE 19:07:22 10° SE
Cosmos 2298 Rocket 4.2 18:55:23 10° N 19:00:33 52° ENE 19:05:43 10° SSE
Cosmos 1943 Rocket 2.1 18:58:54 10° NNW 19:04:30 78° ENE 19:10:08 10° SSE
H-2A R/B 3.7 19:03:08 14° SE 19:05:25 25° ENE 19:08:30 10° NNE
Lacrosse 5 2.7 19:00:54 10° NW 19:05:48 53° WSW 19:10:43 10° SSE
Cosmos 1812 Rocket 4.3 19:02:42 10° SSE 19:06:33 30° E 19:10:25 10° NNE
Intelsat 5-3 Rocket 3.4 19:05:47 10° W 19:09:21 58° SSW 19:15:51 15° ESE
Aurora 2 Rocket 4.0 19:02:31 10° WNW 19:09:22 87° SSW 19:16:52 18° ESE
Yuri Rocket 4.4 19:06:21 10° WNW 19:10:49 32° NNW 19:13:58 14° NE
Cosmos 2058 Rocket 4.3 19:08:55 10° SSW 19:13:03 44° W 19:17:12 10° N
Meteor 1-24 Rocket 4.3 19:08:00 10° NNE 19:13:15 34° E 19:18:19 10° SE
Cosmos 1356 Rocket 4.0 19:10:14 10° NNE 19:14:10 35° E 19:17:25 14° SE
ISS -1.0 19:18:34 10° W 19:20:49 17° NW 19:23:05 10° N
Cosmos 1953 Rocket 4.0 19:16:52 10° NNW 19:21:06 61° W 19:25:21 10° S
FALCON 9 R/B 4.0 19:20:16 10° N 19:21:46 12° NNE 19:23:42 10° NE
TIMED 4.4 19:20:26 10° NNW 19:24:48 88° ENE 19:29:08 10° SSE
OAO 3 Rocket 3.1 19:19:57 10° SW 19:24:50 74° SSE 19:27:10 30° ENE
Cosmos 1766 3.6 19:22:40 10° SSW 19:26:36 68° W 19:30:29 10° N
Cosmos 1544 3.0 19:23:18 10° S 19:26:55 82° W 19:30:30 10° N
FENGYUN 3A 3.8 19:22:50 10° S 19:28:10 74° WSW 19:33:30 10° NNW
Cosmos 292 Rocket 3.8 19:23:34 10° S 19:28:15 53° ESE 19:32:56 10° NNE
NATO 3D Rocket 3.7 19:25:57 10° W 19:32:53 78° N 19:35:13 35° ENE
ARIANE 5 R/B 4.3 19:26:09 10° WSW 19:32:56 15° SSW 19:36:11 10° S
Tiangong 2 3.8 19:31:40 10° W 19:33:46 17° SW 19:35:48 10° S
CZ-3C R/B 2.0 19:32:51 10° WSW 19:33:23 15° SW 19:33:23 15° SW
Cosmos 2184 Rocket 4.4 19:28:47 10° SSW 19:34:59 65° W 19:41:15 10° N
Cosmos 2285 Rocket 4.4 19:29:31 10° SSE 19:35:19 38° E 19:41:09 10° NE
Cosmos 1707 4.2 19:32:32 10° NNW 19:36:13 39° W 19:39:52 10° SSW
Milstar 3 Cent rocket 2.9 19:32:18 10° W 19:37:43 41° NNW 19:39:52 26° NE
Cosmos 1656 Rocket 3.6 19:32:53 10° N 19:38:23 60° ENE 19:40:51 32° SE
Meteor 2-19 Rocket 4.3 19:34:28 10° S 19:40:31 80° E 19:46:33 10° N
Cosmos 783 Rocket 4.4 19:35:29 10° SSW 19:40:41 88° ESE 19:45:54 10° NNE
Cosmos 1610 Rocket 4.5 19:34:34 10° S 19:40:53 88° W 19:47:17 10° N
FREGAT/IRIS 4.0 19:44:25 21° SSW 19:46:02 39° W 19:48:53 10° NNW
SWIFT 3.4 19:46:34 10° W 19:50:24 34° SSW 19:50:40 34° S
ALOS 4.1 19:47:47 10° SSW 19:51:52 30° W 19:55:57 10° NW
Geosat 3.9 19:53:26 36° SSE 19:55:32 82° WSW 20:00:34 10° NNW
FengYun 1-2 T 4.5 19:50:32 10° S 19:56:08 69° WSW 20:01:41 10° NNW
Mugunghwa Rocket 4.1 19:49:23 10° WSW 19:56:45 83° NNW 19:58:50 48° ENE
USA 234 3.6 19:53:46 18° SSE 19:58:38 60° SW 20:05:04 10° NW
Cosmos 1805 4.4 19:56:00 10° SSW 19:59:41 42° W 20:03:22 10° NNW
BREEZE-M DEB (TANK) 4.1 19:57:47 10° WSW 19:59:47 20° WNW 19:59:47 20° WNW
SL-27 R/B 4.4 19:58:37 10° SW 20:01:45 29° WNW 20:04:55 10° NNW
In-Cosmos 22 4.3 20:03:11 10° N 20:08:55 77° W 20:11:46 31° S
MOS 1-B Rocket 4.4 20:14:46 50° NNE 20:14:46 50° NNE 20:19:13 10° N
Cosmos 962 Rocket 4.5 20:10:00 10° S 20:16:19 81° W 20:22:40 10° N
GEOS 3 Rocket 4.1 20:15:41 34° N 20:17:55 60° WNW 20:23:08 10° SW
Cosmos 2082 Rocket 4.4 20:21:31 10° SSW 20:22:09 13° SSW 20:22:09 13° SSW
ATLAS 5 CENTAUR R/B 4.1 20:34:20 10° SW 20:35:11 15° SW 20:35:11 15° SW
Resurs 01 Rocket 4.4 20:44:40 12° NNW 20:44:40 12° NNW 20:45:04 10° NNW
NOSS 3-1 (A) 4.3 20:47:55 10° NNW 20:55:57 67° WSW 20:55:57 67° WSW
Centaur D AC-29 3.9 21:10:07 10° WNW 21:13:07 21° WNW 21:13:07 21° WNW
